Miscellaneous Local Product
Issued by NWS North Platte, NE

Home | Current Version | Previous Version | Graphics & Text | Print | Product List | Glossary On
Versions: 1 2 3 4 5 6 7 8 9 10 11 12 13 14 15 16 17 18 19 20 21 22 23 24 25 26 27 28 29 30 31 32 33 34 35 36 37 38 39 40 41 42 43 44 45 46 47 48 49 50
000
AXUS43 KLBF 310810
MISLBF


WESTERN AND NORTH CENTRAL NEBRASKA HOURLY WEATHER ROUNDUP
NATIONAL WEATHER SERVICE NORTH PLATTE NE
300 AM CDT FRI JUL 31 2015

***STATIONS NOT REPORTING VARIABLES SUCH AS SKY/WEATHER OR
PRESSURE ARE PROVIDED BY THE NEBRASKA DEPARTMENT OF
ROADS...RAWS...AND APRS NETWORKS...AND ARE NOT UNDER
NATIONAL WEATHER SERVICE QUALITY CONTROL***

...OBSERVATIONS IN AND NEAR THE EASTERN PANHANDLE OF NEBRASKA...

CITY           SKY/WX    TMP DP  RH WIND       PRES   REMARKS
PINE RIDGE     CLEAR     56  48  74 CALM      30.22F
CHADRON        CLEAR     57  50  77 W3        30.22S
ALLIANCE       CLEAR     58  56  93 S6        30.26F
SIDNEY         CLEAR     56  54  93 CALM      30.30S
$$

...OBSERVATIONS IN NORTH CENTRAL NEBRASKA...

CITY           SKY/WX    TMP DP  RH WIND       PRES   REMARKS
VALENTINE      CLEAR     61  51  70 CALM      30.19F
THEDFORD       CLEAR     61  59  92 SW5       30.22F
AINSWORTH      CLEAR     62  57  81 CALM      30.19F
O`NEILL        CLEAR     64  62  94 S7        30.17S
ORD            CLEAR     65  63  93 SW5       30.16F
BROKEN BOW     CLEAR     66  62  87 N5        30.20S
SPRINGVIEW       N/A     57  52  84 CALM        N/A
CHAMBERS         N/A     64  60  87 CALM        N/A
EWING            N/A     65  63  93 CALM        N/A
$$

...OBSERVATIONS IN SOUTHWEST NEBRASKA AND FAR NORTHEAST COLORADO...

CITY           SKY/WX    TMP DP  RH WIND       PRES   REMARKS
WRAY           FAIR      61  57  86 CALM      30.25F
IMPERIAL       CLEAR     63  58  83 CALM      30.24R
OGALLALA       CLEAR     61  59  94 CALM      30.24F
NORTH PLATTE   CLEAR     63  60  90 E5        30.22S
MCCOOK         CLEAR     67  62  84 CALM      30.21R
LEXINGTON      CLEAR     65  63  93 CALM      30.20S
BRADY            N/A     65  60  83 CALM        N/A
$$

...NORTH PLATTE AREA...

CITY           SKY/WX    TMP DP  RH WIND       PRES   REMARKS
AIRPORT        CLEAR     63  60  90 E5        30.22S
DOWNTOWN         N/A     69  63  82 CALM        N/A
HILLCREST        N/A     66  61  83 CALM        N/A
$$

...SOME WEATHER OBSERVATIONS FROM AROUND THE REGION...

CITY           SKY/WX    TMP DP  RH WIND       PRES   REMARKS
DENVER         MOCLDY    70  52  52 SW16      30.32F
LARAMIE        CLEAR     56  47  71 S6        30.45F
CHEYENNE       CLEAR     59  53  80 W3        30.39F
SCOTTSBLUFF    CLEAR     63  59  87 E6        30.27S
RAPID CITY     CLEAR     58  51  78 N7        30.23R
PIERRE         CLEAR     62  53  72 NE8       30.14S
WINNER         FAIR      65  52  62 N6        30.16S
SIOUX FALLS    CLEAR     64  59  83 CALM      30.14S
OMAHA          PTCLDY    72  66  81 CALM      30.14S
GRAND ISLAND   CLEAR     70  67  90 S7        30.17F
KANSAS CITY    PTCLDY    68  61  78 SW6       30.17S
WICHITA        MOCLDY    74  66  76 E3        30.16S
HAYS           CLEAR     70  61  73 S5        30.20F
LIBERAL        CLOUDY    73  66  78 SE5       30.22F
GOODLAND       CLEAR     61  60  97 CALM      30.25F
$$



USA.gov is the U.S. government's official web portal to all federal, state and local government web resources and services.